Hourly Weather Roundup
Issued by NWS Central Illinois

Home | Current Version | Previous Version | Text Only | Print | Product List | Glossary On
Versions: 1 2 3 4 5 6 7 8 9 10 11 12 13 14 15 16 17 18 19 20 21 22 23 24 25 26 27 28 29 30 31 32 33 34 35 36 37 38 39 40 41 42 43 44 45 46 47 48 49 50
000
NZUS43 KILX 281710
HWRILX

AREA WEATHER ROUNDUP
NATIONAL WEATHER SERVICE, LINCOLN IL
1200 PM CDT WED SEP 28 2016


CITY           SKY/WX    TMP DP  RH WIND       PRES   REMARKS
BLOOMINGTON    CLOUDY    55  46  71 N17G25    29.94R
CHAMPAIGN      PTSUNNY   59  45  59 NW21G28   29.90R
DANVILLE       CLOUDY    62  49  62 N10G16    29.84S
DECATUR        CLOUDY    59  45  59 N16G26    29.93R
EFFINGHAM      MOSUNNY   65  48  54 NW14G20   29.90R
FLORA          MOSUNNY   67  50  54 N15       29.88R
GALESBURG      CLOUDY    56  47  71 NW13G22   29.99R
JACKSONVILLE   CLOUDY    61  45  56 N18       29.98R
LACON          CLOUDY    56  45  64 N14G21    29.95S
LAWRENCEVILLE  MOSUNNY   66  54  65 NW13      29.83R
LITCHFIELD     PTSUNNY   61  42  48 N16       29.94R
$$


CITY           SKY/WX    TMP DP  RH WIND       PRES   REMARKS
LINCOLN        CLOUDY    57  46  67 N12G18    29.95R
MACOMB         CLOUDY    57  46  65 N13       30.03R
MATTOON        LGT RAIN  61  45  55 N16G26    29.88R
MT CARMEL AP   CLOUDY    67  53  59 NW12G17   29.83S
OLNEY-NOBLE AP MOSUNNY   64  50  59 NW12G21   29.87R
PARIS          CLOUDY    61  49  65 N6        29.87R
PEORIA         CLOUDY    56  46  69 N12G20    29.97R
PONTIAC        PTSUNNY   60  48  65 N16G22    29.93R
RANTOUL        CLOUDY    61  47  59 N15G24    29.90R
ROBINSON       PTSUNNY   66  53  62 NW15      29.84R
SPRINGFIELD    CLOUDY    61  45  55 N16G23    29.95R
TAYLORVILLE    CLOUDY    60  44  55 NW18G26   29.94R
$$

...REGIONAL REPORTS...


CITY           SKY/WX    TMP DP  RH WIND       PRES   REMARKS
CHICAGO O`HARE LGT RAIN  56  49  77 NE9       29.91R
KANKAKEE       CLOUDY    61  46  57 N13       29.89S
MOLINE         CLOUDY    58  48  69 NW17      29.99R
MOUNT STERLING CLOUDY    59  45  60 N17G23    29.99S
MOUNT VERNON   MOSUNNY   66  46  48 N7        29.89R
PITTSFIELD     PTSUNNY   60  45  57 NW14G21   30.00R
QUINCY         MOSUNNY   59  44  57 N15G22    30.01R
ROCKFORD       CLOUDY    58  48  69 N13G23    29.98R
$$


CITY           SKY/WX    TMP DP  RH WIND       PRES   REMARKS
BURLINGTON     CLOUDY    57  47  69 N14       30.02R
CEDAR RAPIDS   CLOUDY    57  50  77 N16       30.03R
DES MOINES     CLOUDY    58  47  66 NW13      30.12R
KIRKSVILLE     MOSUNNY   61  46  57 N14G24    30.07R
OTTUMWA        CLOUDY    58  45  62 N17G23    30.07R
ST LOUIS       MOSUNNY   66  45  46 N14G24    29.95R
$$


CITY           SKY/WX    TMP DP  RH WIND       PRES   REMARKS
TERRE HAUTE    PTSUNNY   64  53  67 NW12      29.83R
EVANSVILLE     RAIN      61  58  90 W7        29.85R
INDIANAPOLIS   CLOUDY    61  55  81 SE8       29.81S
LAFAYETTE      CLOUDY    61  50  67 N13       29.84R
MADISON        PTSUNNY   59  50  72 N13       29.98R
MILWAUKEE      CLOUDY    58  50  75 N13       29.96R
$$





USA.gov is the U.S. government's official web portal to all federal, state and local government web resources and services.